Terug naar catalogus

SDA_1667

ActiefMilitairPO
NORAD 65977·PAYLOAD·🇺🇸 United States

Gelanceerd Oct 15, 2025 vanaf Vandenberg Space Force Base

Loading…

Volgende Passages (komende 24 uur)

TLE

VersSource: Space-Track

Epoch: Sep 14, 2026, 14:55 UTC

1 65977U 25230D   26257.62181433  .00000110  00000-0  92165-4 0  9995
2 65977  81.2989 129.6133 0001354  66.3713 293.7584 13.81447156 46139

Volg SDA_1667 in realtime met AllMySat

Download on the App Store